sat.trackr.live / text

‹ back to catalog

STARLINK-34688

NORAD 65875 · 2025-223X

PAYLOAD ACTIVE UNKNOWN

§ Identity

Operator
Country
US
Launch date
2025-10-03
Launch site
AFWTR
Launch vehicle
Mass (kg)
RCS (m²)

Purposes: comms

External: N2YO · Heavens-Above · Gunter

§ Orbital elements

Epoch: 2026-09-20T22:47:34.783296Z

Period
93.85 min
Inclination
53.1586°
Eccentricity
0.0001205
Mean motion
15.34407377 rev/d
Perigee alt
461.9 km
Apogee alt
463.5 km
Semi-major
6,840.8 km
B*
3.9757e-4
RAAN
103.4645°
Arg perigee
92.2870°
Mean anomaly
267.8271°
Rev number
5,415

§ Raw data

STARLINK-346881 65875U 25223X   26263.94970814  .00013083  00000+0  39757-3 0  99942 65875  53.1586 103.4645 0001205  92.2870 267.8271 15.34407377 54159

JSON: /api/v1/satellites/65875 · /tle

For live sub-satellite position, see the globe view (requires WebGL).

§ Visibility from observer

Set your observer location to see the next 7 days of passes ≥ 10°. The values pass through the URL so the page stays shareable.

No JS? Fill the form by hand. The geolocation button needs JavaScript.